323  
ASUS41 KALY 071110  
RWRALY  
 
NEW YORK STATE HOURLY WEATHER ROUNDUP  
NATIONAL WEATHER SERVICE ALBANY NY  
700 AM EDT THU JUL 07 2022  
 
NOTE: "FAIR" INDICATES FEW OR NO CLOUDS BELOW 12,000 FEET WITH NO  
SIGNIFICANT WEATHER AND/OR NO S TO VISIBILITY
.  
 
NYZ032-033-038>043-046>054-057>066-NYZ062>081-082-084-071200-  
EAST  
 
 
CITY SKY/WX TMP DP RH WIND PRES REMARKS
 
ALBANY MOSUNNY 64 59 83 CALM 30.05R  
GLENS FALLS SUNNY 60 56 86 NE3 30.04S  
POUGHKEEPSIE MOSUNNY 65 59 81 N3 30.02R  
NEWBURGH MOSUNNY 68 59 73 E6 30.03R  
MONTGOMERY PTSUNNY 65 60 84 NE8 30.02R  
WHITE PLAINS PTSUNNY 70 62 76 E8 30.01R  
ISLIP PTSUNNY 70 64 81 E5 30.00R  
NEW YORK CITY PTSUNNY 70 63 78 NE9 30.00R  
CENTRAL PARK CLOUDY 72 62 71 VRB6 30.03R  

 
 
NYZ005>009-017-018-044>046-055-056-071200-  
CENTRAL  
 
 
CITY SKY/WX TMP DP RH WIND PRES REMARKS
 
FULTON SUNNY 58 56 93 CALM 30.05R FOG  
SYRACUSE MOSUNNY 62 57 83 CALM 30.05R  
ROME SUNNY 58 55 90 CALM 30.06R  
ELMIRA MOSUNNY 60 58 92 CALM 30.05R  
BINGHAMTON MOSUNNY 58 57 97 NE5 30.05R  
MONTICELLO CLOUDY 61 59 93 E3 30.06R  

 
 
NYZ026>034-041>043-087-071200-  
NORTH  
 
 
CITY SKY/WX TMP DP RH WIND PRES REMARKS
 
WATERTOWN SUNNY 55 54 96 CALM 30.06R  
FORT DRUM NOT AVBL  
OGDENSBURG FAIR 55 54 94 CALM 30.04R  
MASSENA SUNNY 56 54 93 CALM 30.06R  
SARANAC LAKE FOG 50 50 100 CALM 30.08R VSB 1/4  
PLATTSBURGH CLOUDY 58 55 90 CALM 30.05R  

 
 
NYZ001>004-010>016-019>021-085-071200-  
WEST  
 
 
CITY SKY/WX TMP DP RH WIND PRES REMARKS
 
NIAGARA FALLS SUNNY 59 56 89 CALM 30.05R  
BUFFALO SUNNY 61 56 83 E3 30.05R  
DUNKIRK SUNNY 61 57 87 CALM 30.04R  
JAMESTOWN CLOUDY 61 57 87 NE3 30.07R  
WELLSVILLE SUNNY 59 56 89 CALM 30.09R  
ROCHESTER MOSUNNY 57 56 96 SW3 30.06R  
PENN YAN CLOUDY 62 59 90 CALM 30.06S  

 
 
KEY  
WCI = WIND CHILL INDEX  
VSB = VISIBILITY  
HX = HEAT INDEX  

 
 
 
CLICK HERE TO GO TO PREVIOUS BULLETINS.

The Nexlab NY Page
The Nexlab VT Page
The Nexlab MA Page
The Nexlab CT Page Main Text Page